Tracking 18980 objects as of 20-Feb-2018
HD Live streaming from Space Station
objects crossing your sky now

APRIZESAT 6

Track APRIZESAT 6 now!
10-day predictions
APRIZESAT 6 is classified as:


NORAD ID: 37793
Int'l Code: 2011-044F
Perigee: 627.7 km
Apogee: 694.1 km
Inclination: 98.3 °
Period: 97.8 minutes
Semi major axis: 7031 km
RCS: 0.203 m2 (medium)
Launch date: August 17, 2011
Source: United States (US)
Launch site: Orenburg, Russia (OREN)
aabbcc
Your satellite tracking list
Your tracking list is empty




NASA's NSSDC Master Catalog

Two Line Element Set (TLE):
1 37793U 11044F   18050.95358876 +.00000068 +00000-0 +19322-4 0  9999
2 37793 098.3185 189.6891 0047176 010.7094 102.3929 14.72285695349576
Source of the keplerian elements: AFSPC